Overview Statistics Trail Chart Weather Telemetry Raw packets
 

This is the latest recevied weather packets stored in our database for station/object W0WFX-2. If no packets are shown the sender has not sent any weather packets the latest 10 day(s).

<< 59 60 61 62 63 64 65 >>
Time Temp. Humidity Pressure Rain* Wind** Luminosity Snow
1788239581 26.11° C 55% 1014.6 hPa 0 mm - 0 W/m² -
1788239273 26.11° C 56% 1014.7 hPa 0 mm - 0 W/m² -
1788238968 26.11° C 58% 1014.9 hPa 0 mm - 0 W/m² -
1788238669 26.67° C 57% 1014.7 hPa 0 mm - 0 W/m² -
1788238358 26.67° C 59% 1014.7 hPa 0 mm - 0 W/m² -
1788238054 26.67° C 55% 1014.8 hPa 0 mm - 0 W/m² -
1788237750 27.22° C 54% 1014.6 hPa 0 mm - 0 W/m² -
1788237446 27.22° C 53% 1014.7 hPa 0 mm - 0 W/m² -
1788237141 27.78° C 51% 1014.8 hPa 0 mm - 0 W/m² -
1788236840 27.78° C 50% 1014.9 hPa 0 mm - 0 W/m² -
1788236535 27.78° C 50% 1014.9 hPa 0 mm - 0 W/m² -
1788236231 27.78° C 50% 1014.6 hPa 0 mm - 0 W/m² -
1788235931 27.78° C 50% 1014.8 hPa 0 mm - 0 W/m² -
1788235626 27.78° C 50% 1014.7 hPa 0 mm - 0 W/m² -
1788235324 27.78° C 50% 1014.5 hPa 0 mm - 0 W/m² -
1788235023 28.33° C 51% 1014.5 hPa 0 mm - 0 W/m² -
1788234722 28.33° C 50% 1014.6 hPa 0 mm - 0 W/m² -
1788234421 28.33° C 51% 1014.6 hPa 0 mm - 0 W/m² -
1788234116 28.33° C 51% 1014.7 hPa 0 mm - 0 W/m² -
1788233816 28.33° C 50% 1014.6 hPa 0 mm - 0 W/m² -
1788233515 28.33° C 52% 1014.5 hPa 0 mm - 0 W/m² -
1788233214 28.33° C 53% 1014.3 hPa 0 mm - 0 W/m² -
1788232909 28.33° C 53% 1014.3 hPa 0 mm - 0 W/m² -
1788232604 28.89° C 52% 1014.3 hPa 0 mm - 0 W/m² -
1788232301 28.89° C 51% 1014.4 hPa 0 mm - 0 W/m² -

* Rain latest hour (hover to see other rain measurements)
** Current wind speed in m/s (hover to see current wind gust speed)